This demonstration page uses our WeatherBlox Daily Observations layout. Learn more.

Left ArrowRight Arrow

Hourly Observations for June 19, 2019

Temp ( °F °C ) Dew Point ( °F °C ) Humidity (%) Winds ( mph kmh ) Pressure ( in mb ) Visibility ( mi km ) Precip ( " mm )
12:37 am 00:37 Clear with Nearby Thunderstorms 57 14 54 12 88 88 NW 3 6 29.76 1008 10 16 0.00 0.00
12:53 am 00:53 Partly Cloudy with Nearby Thunderstorms 58 14.4 53 11.7 84 84 NNW 5 7 29.80 1009 10 16 0.00 0.00
1:07 am 01:07 Mostly Clear 59 15 53 11.7 81 81 NW 3 6 29.76 1008 10 16 0.00 0.00
1:53 am 01:53 Cloudy with Nearby Thunderstorms 64 17.8 48 8.9 56 56 W 9 15 29.79 1009 8 13 0.02 0.51
2:08 am 02:08 Cloudy with Light Rain 58 14.4 54 12.2 87 87 W 12 19 29.78 1008 10 16 0.02 0.51
2:53 am 02:53 Cloudy with Light Rain 58 14.4 55 12.8 90 90 WSW 9 15 29.78 1009 10 16 0.03 0.76
3:53 am 03:53 Mostly Cloudy 57 13.9 54 12.2 90 90 S 10 17 29.74 1007 10 16 0.01 0.25
4:53 am 04:53 Mostly Clear 56 13.3 52 11.1 87 87 S 8 13 29.70 1006 10 16 0.00 0.00
5:53 am 05:53 Sunny 55 12.8 50 10 83 83 S 12 19 29.68 1005 10 16 0.00 0.00
6:53 am 06:53 Sunny 56 13.3 51 10.6 84 84 WSW 12 19 29.67 1005 10 16 0.00 0.00
7:53 am 07:53 Sunny 60 15.6 54 12.2 80 80 SW 13 20 29.67 1005 10 16 0.00 0.00
8:53 am 08:53 Sunny 68 20 54 12.2 61 61 SW 13 20 29.64 1004 10 16 0.00 0.00
9:53 am 09:53 Sunny 68 20 51 10.6 55 55 SW 15 24 29.64 1004 10 16 0.00 0.00
10:53 am 10:53 Sunny 71 21.7 52 11.1 51 51 SW 12 19 29.61 1003 10 16 0.00 0.00
11:53 am 11:53 Sunny 76 24.4 51 10.6 42 42 SW 8 13 29.59 1002 10 16 0.00 0.00
12:53 pm 12:53 Partly Cloudy 77 25 44 6.7 31 31 W 16 26 29.57 1001 10 16 0.00 0.00
1:53 pm 13:53 Partly Cloudy 79 26.1 42 5.6 27 27 W 20 31 29.54 1000 10 16 0.00 0.00
2:53 pm 14:53 Partly Cloudy 76 24.4 40 4.4 27 27 W 18 30 29.55 1001 10 16 0.00 0.00
3:53 pm 15:53 Mostly Cloudy 75 23.9 38 3.3 26 26 NW 21 33 29.55 1001 10 16 0.00 0.00
4:06 pm 16:06 Cloudy 67 19.4 49 9.4 53 53 NNW 37 59 29.52 1000 10 16 0.00 0.00
4:53 pm 16:53 Mostly Cloudy 63 17.2 45 7.2 52 52 NNW 26 43 29.63 1004 10 16 0.00 0.00
5:53 pm 17:53 Cloudy 63 17.2 41 5 45 45 NW 23 37 29.69 1005 10 16 0.00 0.00
6:53 pm 18:53 Cloudy 63 17.2 37 2.8 38 38 NW 16 26 29.71 1006 10 16 0.00 0.00
7:53 pm 19:53 Mostly Sunny 62 16.7 36 2.2 38 38 NW 14 22 29.72 1006 10 16 0.00 0.00
8:53 pm 20:53 Sunny 60 15.6 35 1.7 39 39 NW 10 17 29.71 1006 10 16 0.00 0.00
9:53 pm 21:53 Clear 49 9.4 38 3.3 66 66 W 9 15 29.75 1008 10 16 0.00 0.00
10:53 pm 22:53 Clear 45 7.2 39 3.9 80 80 W 3 6 29.77 1008 10 16 0.00 0.00
11:53 pm 23:53 Mostly Clear 52 11.1 42 5.6 69 69 NNW 14 22 29.77 1008 10 16 0.00 0.00

Powered by AerisWeather